This is the latest recevied weather packets stored in our database for station/object W6MAF. If no packets are shown the sender has not sent any weather packets the latest 10 day(s).
| Time | Temp. | Humidity | Pressure | Rain* | Wind** | Luminosity | Snow |
|---|---|---|---|---|---|---|---|
| 1777520208 | 13.33° C | 40% | - | 0 mm | 3.58 m/s, 225° | - | - |
| 1777519910 | 13.89° C | 39% | - | 0 mm | 3.13 m/s, 208° | - | - |
| 1777519613 | 13.89° C | 38% | - | 0 mm | 4.92 m/s, 222° | - | - |
| 1777519315 | 13.89° C | 37% | - | 0 mm | 5.36 m/s, 200° | - | - |
| 1777519014 | 14.44° C | 34% | - | 0 mm | 6.26 m/s, 231° | - | - |
| 1777518717 | 14.44° C | 33% | - | 0 mm | 2.68 m/s, 222° | - | - |
| 1777518419 | 14.44° C | 32% | - | 0 mm | 3.13 m/s, 239° | - | - |
| 1777518121 | 14.44° C | 33% | - | 0 mm | 4.47 m/s, 240° | - | - |
| 1777517823 | 15° C | 32% | - | 0 mm | 2.68 m/s, 226° | - | - |
| 1777517526 | 15° C | 32% | - | 0 mm | 4.02 m/s, 239° | - | - |
| 1777517225 | 15° C | 31% | - | 0 mm | 3.58 m/s, 212° | - | - |
| 1777516927 | 15° C | 31% | - | 0 mm | 2.68 m/s, 200° | - | - |
| 1777516332 | 15.56° C | 30% | - | 0 mm | 3.58 m/s, 219° | - | - |
| 1777516034 | 16.11° C | 30% | - | 0 mm | 3.13 m/s, 218° | - | - |
| 1777515436 | 16.11° C | 28% | - | 0 mm | 2.24 m/s, 240° | - | - |
| 1777515138 | 16.67° C | 27% | - | 0 mm | 0.89 m/s, 233° | - | - |
| 1777514840 | 17.22° C | 26% | - | 0 mm | 0.45 m/s, 201° | - | - |
| 1777514542 | 17.22° C | 24% | - | 0 mm | 0.45 m/s, 246° | - | - |
| 1777514245 | 17.78° C | 23% | - | 0 mm | 0.89 m/s, 184° | - | - |
| 1777513948 | 17.78° C | 21% | - | 0 mm | 0.89 m/s, 231° | - | - |
| 1777513646 | 18.33° C | 20% | - | 0 mm | 0 m/s | - | - |
| 1777513348 | 18.33° C | 19% | - | 0 mm | 1.79 m/s, 208° | - | - |
| 1777513051 | 18.33° C | 17% | - | 0 mm | 0 m/s | - | - |
| 1777512753 | 18.89° C | 18% | - | 0 mm | 2.68 m/s, 194° | - | - |
| 1777512455 | 18.89° C | 17% | - | 0 mm | 4.47 m/s, 219° | - | - |
* Rain latest hour (hover to see other rain measurements)
** Current wind speed in m/s (hover to see current wind gust speed)